Regional Weather Roundup
Issued by NWS Charleston, WV

Home | Current Version | Previous Version | Text Only | Print | Product List | Glossary On
Versions: 1 2 3 4 5 6 7 8 9 10 11 12 13 14 15 16 17 18 19 20 21 22 23 24 25 26 27 28
000
ASUS41 KRLX 240510
RWRRLX
West Virginia Regional Weather Roundup
National Weather Service Charleston WV
100 AM EDT SUN JUL 24 2016

Note: "fair" indicates few or no clouds below 12,000 feet with no
significant weather and/or obstructions to visibility.

WVZ003-240600-
Northern Panhandle of West Virginia

CITY           SKY/WX    TMP DP  RH WIND       PRES   REMARKS
WHEELING         N/A     76  70  82 E6        30.03S
$$

WVZ009-240600-
Northwest West Virginia

CITY           SKY/WX    TMP DP  RH WIND       PRES   REMARKS
PARKERSBURG      N/A     75  73  93 S5        30.04S FOG
$$

WVZ006-240600-
Western West Virginia

CITY           SKY/WX    TMP DP  RH WIND       PRES   REMARKS
HUNTINGTON       N/A     77  74  90 CALM      30.01F FOG
$$

WVZ015-240600-
West Central West Virginia

CITY           SKY/WX    TMP DP  RH WIND       PRES   REMARKS
CHARLESTON       N/A     75  73  93 CALM      30.03S
$$

WVZ022-031-240600-
North Central West Virginia

CITY           SKY/WX    TMP DP  RH WIND       PRES   REMARKS
CLARKSBURG       N/A     74  71  91 CALM      30.04R
MORGANTOWN       N/A     76  72  87 CALM      30.04S
$$

WVZ025-035-042-045-240600-
Southern West Virginia

CITY           SKY/WX    TMP DP  RH WIND       PRES   REMARKS
BECKLEY          N/A     71  67  87 CALM      30.13S
LOGAN            N/A     75  72  88 CALM      30.07S
BLUEFIELD        N/A     74  66  76 NE3       30.16R
LEWISBURG        N/A     70  67  92 CALM      30.12S
$$

WVZ047-240600-
Northern Mountains of West Virginia

CITY           SKY/WX    TMP DP  RH WIND       PRES   REMARKS
ELKINS           N/A     68  66  93 CALM      30.11R FOG
$$

WVZ052-240600-
Eastern Panhandle of West Virginia

CITY           SKY/WX    TMP DP  RH WIND       PRES   REMARKS
MARTINSBURG      N/A     79  69  71 CALM      29.96S
PETERSBURG       N/A     73  69  89 CALM      30.03R
$$




USA.gov is the U.S. government's official web portal to all federal, state and local government web resources and services.